TimeAKDT,TemperatureF,Dew PointF,Humidity,Sea Level PressureIn,VisibilityMPH,Wind Direction,Wind SpeedMPH,Gust SpeedMPH,PrecipitationIn,Events,Conditions,WindDirDegrees,DateUTC
12:53 AM,51.1,45.0,80,30.49,10.0,NNW,11.5,-,N/A,,Overcast,330,2012-10-05 08:53:00
1:53 AM,51.1,45.0,80,30.48,10.0,NNW,15.0,-,N/A,,Overcast,340,2012-10-05 09:53:00
2:53 AM,51.1,46.9,86,30.48,10.0,NNW,13.8,-,N/A,,Overcast,340,2012-10-05 10:53:00
3:19 AM,51.8,46.4,82,30.47,10.0,NNW,13.8,-,N/A,,Overcast,340,2012-10-05 11:19:00
3:53 AM,50.0,48.0,93,30.48,10.0,NNW,11.5,-,N/A,,Overcast,340,2012-10-05 11:53:00
4:53 AM,51.1,48.0,89,30.47,10.0,NNW,10.4,-,N/A,,Overcast,330,2012-10-05 12:53:00
5:53 AM,51.1,48.0,89,30.47,10.0,North,11.5,-,N/A,,Overcast,350,2012-10-05 13:53:00
6:53 AM,51.1,48.0,89,30.46,10.0,NNW,12.7,-,N/A,,Overcast,330,2012-10-05 14:53:00
7:53 AM,52.0,48.9,89,30.46,10.0,NNW,11.5,-,N/A,,Overcast,330,2012-10-05 15:53:00
8:53 AM,53.1,50.0,89,30.45,10.0,North,12.7,-,N/A,,Overcast,350,2012-10-05 16:53:00
9:53 AM,55.0,50.0,83,30.45,10.0,North,15.0,-,N/A,,Mostly Cloudy,350,2012-10-05 17:53:00
10:53 AM,55.0,50.0,83,30.44,10.0,NNW,17.3,-,N/A,,Scattered Clouds,330,2012-10-05 18:53:00
11:53 AM,57.9,51.1,78,30.43,10.0,NNW,17.3,-,N/A,,Scattered Clouds,330,2012-10-05 19:53:00
12:53 PM,59.0,51.1,75,30.42,10.0,NNW,17.3,-,N/A,,Scattered Clouds,340,2012-10-05 20:53:00
1:53 PM,59.0,51.1,75,30.41,10.0,NNW,17.3,-,N/A,,Clear,340,2012-10-05 21:53:00
2:53 PM,57.9,51.1,78,30.41,10.0,NNW,15.0,-,N/A,,Clear,330,2012-10-05 22:53:00
3:53 PM,57.0,51.1,81,30.39,10.0,NW,10.4,-,N/A,,Clear,310,2012-10-05 23:53:00
4:53 PM,57.0,52.0,83,30.38,10.0,NW,12.7,-,N/A,,Clear,320,2012-10-06 00:53:00
5:53 PM,57.0,52.0,83,30.36,10.0,NW,15.0,-,N/A,,Clear,320,2012-10-06 01:53:00
6:53 PM,55.9,52.0,87,30.36,10.0,NNW,13.8,-,N/A,,Clear,330,2012-10-06 02:53:00
7:53 PM,55.9,52.0,87,30.36,10.0,NNW,16.1,-,N/A,,Clear,330,2012-10-06 03:53:00
8:53 PM,55.0,52.0,89,30.36,10.0,WNW,11.5,-,N/A,,Clear,300,2012-10-06 04:53:00
9:53 PM,55.9,51.1,84,30.35,10.0,NW,11.5,-,N/A,,Clear,310,2012-10-06 05:53:00
10:53 PM,55.0,51.1,86,30.35,10.0,NW,10.4,-,N/A,,Clear,320,2012-10-06 06:53:00
11:53 PM,55.0,51.1,86,30.36,10.0,NNW,12.7,-,N/A,,Clear,330,2012-10-06 07:53:00